Location: ????
(55.5675°N, 37.6272°E)
Time: 01:49:44
(UTC+00:00)

CZ-4B R/B - Pass Details

Date: 14 April 2026
Orbit: 808 x 880 km, 98.9° (Epoch: 20 May)

Event Time Altitude Azimuth Distance (km) Brightness Sun altitude
Exits shadow 17:10:58 - 152° (SSE) 3,418 5.9 -5.8°
Reaches altitude 10° 17:13:19 10° 150° (SSE) 2,497 5.2 -6.1°
Maximum altitude 17:18:50 70° 68° (ENE) 929 3.3 -6.8°
Drops below altitude 10° 17:24:29 10° 346° (NNW) 2,546 6.4 -7.5°
Sets 17:26:54 0° 345° (NNW) 3,493 7.2 -7.8°
